Location: Aytr�
(46.1357°N, 1.1145°W)
Time: 06:43:47
(UTC+00:00)

CSL-04 DEB - Pass Details

Date: 03 March 2021
Orbit: 546 x 626 km, 98.8° (Epoch: 18 April)

Event Time Altitude Azimuth Distance (km) Brightness Sun altitude
Rises 18:13:14 0° 16° (NNE) 2,731 7.7 -4.2°
Reaches altitude 10° 18:15:22 10° 19° (NNE) 1,838 6.8 -4.5°
Maximum altitude 18:19:19 70° 103° (ESE) 598 4.3 -5.2°
Drops below altitude 10° 18:23:19 10° 188° (S) 1,856 7.2 -5.9°
Sets 18:25:28 0° 190° (S) 2,760 8.1 -6.3°
